This is the latest recevied weather packets stored in our database for station/object PY5AL-13. If no packets are shown the sender has not sent any weather packets the latest 10 day(s).
| Time | Temp. | Humidity | Pressure | Rain* | Wind** | Luminosity | Snow |
|---|---|---|---|---|---|---|---|
| 1777936465 | 25° C | 65% | 1020.4 hPa | - | - | - | - |
| 1777935265 | 25° C | 65% | 1020.5 hPa | - | - | - | - |
| 1777934065 | 25° C | 65% | 1020.2 hPa | - | - | - | - |
| 1777932865 | 25° C | 65% | 1019.7 hPa | - | - | - | - |
| 1777931665 | 25° C | 64% | 1019.5 hPa | - | - | - | - |
| 1777930466 | 25° C | 64% | 1019.2 hPa | - | - | - | - |
| 1777929265 | 25° C | 64% | 1019.2 hPa | - | - | - | - |
| 1777928066 | 24.44° C | 64% | 1019 hPa | - | - | - | - |
| 1777926866 | 25° C | 64% | 1018.8 hPa | - | - | - | - |
| 1777925666 | 24.44° C | 64% | 1018.7 hPa | - | - | - | - |
| 1777924466 | 24.44° C | 64% | 1018.8 hPa | - | - | - | - |
| 1777923265 | 24.44° C | 64% | 1018.5 hPa | - | - | - | - |
| 1777922065 | 24.44° C | 65% | 1018.7 hPa | - | - | - | - |
| 1777920866 | 24.44° C | 64% | 1018.6 hPa | - | - | - | - |
| 1777919666 | 24.44° C | 63% | 1018.7 hPa | - | - | - | - |
| 1777918466 | 24.44° C | 61% | 1018.8 hPa | - | - | - | - |
| 1777917266 | 24.44° C | 62% | 1019.1 hPa | - | - | - | - |
| 1777916066 | 23.89° C | 62% | 1019.2 hPa | - | - | - | - |
| 1777914866 | 23.89° C | 63% | 1019.7 hPa | - | - | - | - |
| 1777913666 | 23.89° C | 63% | 1020 hPa | - | - | - | - |
| 1777912466 | 23.33° C | 62% | 1020.4 hPa | - | - | - | - |
| 1777911266 | 22.78° C | 63% | 1020.5 hPa | - | - | - | - |
| 1777910066 | 22.78° C | 63% | 1020.9 hPa | - | - | - | - |
| 1777908866 | 22.78° C | 64% | 1021.5 hPa | - | - | - | - |
| 1777907666 | 22.78° C | 64% | 1021.4 hPa | - | - | - | - |
* Rain since midnight (hover to see other rain measurements)
** Current wind speed in m/s (hover to see current wind gust speed)